This is the latest recevied weather packets stored in our database for station/object N3LF. If no packets are shown the sender has not sent any weather packets the latest 10 day(s).
| Time | Temp. | Humidity | Pressure | Rain* | Wind** | Luminosity | Snow |
|---|---|---|---|---|---|---|---|
| 1777733939 | 16.67° C | 50% | 1020.6 hPa | 0 mm | - | 540 W/m² | - |
| 1777733635 | 15.56° C | 47% | 1020.5 hPa | 0 mm | - | 528 W/m² | - |
| 1777733332 | 16.11° C | 53% | 1020.4 hPa | 0 mm | - | 519 W/m² | - |
| 1777733029 | 15° C | 54% | 1020.6 hPa | 0 mm | - | 505 W/m² | - |
| 1777732725 | 14.44° C | 58% | 1020.4 hPa | 0 mm | - | 491 W/m² | - |
| 1777732422 | 15.56° C | 59% | 1020.5 hPa | 0 mm | - | 476 W/m² | - |
| 1777732120 | 15.56° C | 62% | 1020.4 hPa | 0 mm | - | 461 W/m² | - |
| 1777731817 | 15° C | 62% | 1020.6 hPa | 0 mm | - | 446 W/m² | - |
| 1777731513 | 14.44° C | 64% | 1020.3 hPa | 0 mm | - | 437 W/m² | - |
| 1777731212 | 13.89° C | 66% | 1020.3 hPa | 0 mm | - | 422 W/m² | - |
| 1777730909 | 13.33° C | 67% | 1020.1 hPa | 0 mm | - | 410 W/m² | - |
| 1777730607 | 13.89° C | 67% | 1020.4 hPa | 0 mm | - | 393 W/m² | - |
| 1777730303 | 13.89° C | 70% | 1020.5 hPa | 0 mm | - | 378 W/m² | - |
| 1777730000 | 14.44° C | 65% | 1020.3 hPa | 0 mm | - | 365 W/m² | - |
| 1777729696 | 13.33° C | 71% | 1020.5 hPa | 0 mm | - | 353 W/m² | - |
| 1777729393 | 12.22° C | 73% | 1020.6 hPa | 0 mm | - | 339 W/m² | - |
| 1777729089 | 11.67° C | 74% | 1020.4 hPa | 0 mm | - | 324 W/m² | - |
| 1777728786 | 11.67° C | 74% | 1020.6 hPa | 0 mm | - | 307 W/m² | - |
| 1777728483 | 11.11° C | 75% | 1020.4 hPa | 0 mm | - | 293 W/m² | - |
| 1777728180 | 11.67° C | 74% | 1020.5 hPa | 0 mm | - | 277 W/m² | - |
| 1777727877 | 11.11° C | 77% | 1020.3 hPa | 0 mm | - | 262 W/m² | - |
| 1777727574 | 10.56° C | 80% | 1020.2 hPa | 0 mm | - | 249 W/m² | - |
| 1777727271 | 10° C | 77% | 1020.1 hPa | 0 mm | - | 237 W/m² | - |
| 1777726969 | 10° C | 85% | 1020.1 hPa | 0 mm | - | 226 W/m² | - |
| 1777726665 | 10° C | 88% | 1019.9 hPa | 0 mm | - | 204 W/m² | - |
* Rain latest hour (hover to see other rain measurements)
** Current wind speed in m/s (hover to see current wind gust speed)